| time (UTC) | temp F | wind direction | speed knots | gust knots | rain 1hr in | rain 24hr in | rain mn in | humidity % | barometer mb |
| 20260507033442 | 52 | 14 | 0.0 | 0.9 | 0.00 | 1.20 | 1.20 | 89 | 1016.4 |
| 20260507033221 | 52 | 14 | 0.0 | 0.9 | 0.00 | 1.21 | 1.20 | 89 | 1016.4 |
| 20260507033021 | 52 | 356 | 0.0 | 0.9 | 0.00 | 1.21 | 1.20 | 90 | 1016.4 |
| 20260507032821 | 52 | 331 | 0.0 | 0.9 | 0.00 | 1.21 | 1.20 | 90 | 1016.4 |
| 20260507032621 | 52 | 302 | 0.0 | 0.9 | 0.00 | 1.21 | 1.20 | 90 | 1016.3 |
| 20260507032421 | 52 | 302 | 0.0 | 0.9 | 0.00 | 1.21 | 1.20 | 91 | 1016.2 |
| 20260507032221 | 52 | 288 | 0.0 | 0.9 | 0.00 | 1.21 | 1.20 | 91 | 1016.2 |
| 20260507032042 | 52 | 288 | 0.0 | 0.9 | 0.00 | 1.21 | 1.20 | 91 | 1016.1 |
| 20260507031821 | 52 | 288 | 0.0 | 0.9 | 0.00 | 1.21 | 1.20 | 91 | 1016.1 |
| 20260507031642 | 52 | 0 | 0.0 | 0.0 | 0.00 | 1.21 | 1.20 | 91 | 1016.1 |
| 20260507031443 | 52 | 0 | 0.0 | 0.0 | 0.00 | 1.21 | 1.20 | 92 | 1016.0 |
| 20260507031221 | 52 | 9 | 0.0 | 0.9 | 0.00 | 1.21 | 1.20 | 92 | 1016.0 |
| 20260507031042 | 52 | 9 | 0.0 | 0.9 | 0.00 | 1.21 | 1.20 | 92 | 1015.8 |
| 20260507030821 | 52 | 9 | 0.0 | 0.9 | 0.01 | 1.21 | 1.20 | 92 | 1015.8 |
| 20260507030621 | 52 | 9 | 0.0 | 0.9 | 0.01 | 1.21 | 1.20 | 93 | 1015.7 |
| 20260507030421 | 52 | 0 | 0.0 | 0.0 | 0.01 | 1.21 | 1.20 | 93 | 1015.6 |
| 20260507030221 | 52 | 0 | 0.0 | 0.0 | 0.01 | 1.21 | 1.20 | 93 | 1015.6 |
| 20260507030021 | 52 | 0 | 0.0 | 0.0 | 0.01 | 1.21 | 1.20 | 94 | 1015.7 |
| 20260507025821 | 52 | 0 | 0.0 | 0.0 | 0.01 | 1.21 | 1.20 | 94 | 1015.9 |
| 20260507025622 | 52 | 0 | 0.0 | 0.0 | 0.01 | 1.21 | 1.20 | 94 | 1016.0 |
| 20260507025421 | 52 | 0 | 0.0 | 0.0 | 0.01 | 1.21 | 1.20 | 94 | 1016.0 |
| 20260507025221 | 52 | 0 | 0.0 | 0.0 | 0.01 | 1.21 | 1.20 | 94 | 1016.1 |
| 20260507025021 | 53 | 0 | 0.0 | 0.0 | 0.01 | 1.21 | 1.20 | 94 | 1016.2 |
| 20260507024821 | 53 | 0 | 0.0 | 0.0 | 0.01 | 1.21 | 1.20 | 94 | 1016.2 |
| 20260507024642 | 53 | 0 | 0.0 | 0.0 | 0.01 | 1.21 | 1.20 | 94 | 1016.3 |
| 20260507024421 | 53 | 0 | 0.0 | 0.0 | 0.01 | 1.21 | 1.20 | 94 | 1016.3 |
| 20260507024221 | 53 | 0 | 0.0 | 0.0 | 0.01 | 1.21 | 1.20 | 94 | 1016.4 |
| 20260507024021 | 53 | 0 | 0.0 | 0.0 | 0.01 | 1.21 | 1.20 | 94 | 1016.4 |
| 20260507023821 | 53 | 0 | 0.0 | 0.0 | 0.01 | 1.21 | 1.20 | 94 | 1016.3 |
| 20260507023621 | 53 | 0 | 0.0 | 0.0 | 0.01 | 1.21 | 1.20 | 94 | 1016.4 |
| 20260507023421 | 53 | 0 | 0.0 | 0.0 | 0.01 | 1.21 | 1.20 | 94 | 1016.3 |
| 20260507023221 | 53 | 0 | 0.0 | 0.0 | 0.01 | 1.21 | 1.20 | 94 | 1016.2 |
| 20260507023042 | 53 | 0 | 0.0 | 0.0 | 0.01 | 1.21 | 1.20 | 94 | 1016.3 |
| 20260507022821 | 53 | 0 | 0.0 | 0.0 | 0.01 | 1.21 | 1.20 | 94 | 1016.5 |
| 20260507022621 | 53 | 0 | 0.0 | 0.0 | 0.01 | 1.21 | 1.20 | 94 | 1016.4 |
| 20260507022422 | 53 | 0 | 0.0 | 0.0 | 0.01 | 1.21 | 1.20 | 94 | 1016.4 |
| 20260507022221 | 53 | 0 | 0.0 | 0.0 | 0.01 | 1.21 | 1.20 | 94 | 1016.4 |
| 20260507022021 | 53 | 0 | 0.0 | 0.0 | 0.01 | 1.21 | 1.20 | 94 | 1016.4 |
| 20260507021842 | 53 | 0 | 0.0 | 0.0 | 0.01 | 1.21 | 1.20 | 94 | 1016.4 |
| 20260507021621 | 53 | 0 | 0.0 | 0.0 | 0.01 | 1.21 | 1.20 | 94 | 1016.4 |
| 20260507021421 | 53 | 0 | 0.0 | 0.0 | 0.01 | 1.21 | 1.20 | 93 | 1016.4 |
| 20260507021221 | 53 | 0 | 0.0 | 0.0 | 0.01 | 1.21 | 1.20 | 93 | 1016.4 |
| 20260507021042 | 53 | 0 | 0.0 | 0.0 | 0.01 | 1.21 | 1.20 | 93 | 1016.5 |
| 20260507020822 | 53 | 0 | 0.0 | 0.0 | 0.00 | 1.20 | 1.19 | 93 | 1016.5 |
| 20260507020621 | 53 | 0 | 0.0 | 0.0 | 0.00 | 1.20 | 1.19 | 93 | 1016.5 |
| 20260507020421 | 54 | 0 | 0.0 | 0.0 | 0.00 | 1.20 | 1.19 | 93 | 1016.6 |
| 20260507020221 | 54 | 0 | 0.0 | 0.0 | 0.00 | 1.20 | 1.19 | 93 | 1016.6 |
| 20260507020021 | 54 | 0 | 0.0 | 0.0 | 0.00 | 1.20 | 1.19 | 93 | 1016.6 |
| 20260507015821 | 54 | 0 | 0.0 | 0.0 | 0.00 | 1.20 | 1.19 | 93 | 1016.6 |
| 20260507015621 | 54 | 0 | 0.0 | 0.0 | 0.00 | 1.20 | 1.19 | 93 | 1016.6 |
| 20260507015421 | 54 | 0 | 0.0 | 0.0 | 0.00 | 1.20 | 1.19 | 93 | 1016.6 |
| 20260507015221 | 54 | 0 | 0.0 | 0.0 | 0.00 | 1.20 | 1.19 | 93 | 1016.5 |
| 20260507015021 | 54 | 0 | 0.0 | 0.0 | 0.00 | 1.20 | 1.19 | 93 | 1016.5 |
| 20260507014821 | 54 | 0 | 0.0 | 0.0 | 0.00 | 1.20 | 1.19 | 93 | 1016.5 |
| 20260507014622 | 54 | 0 | 0.0 | 0.0 | 0.00 | 1.20 | 1.19 | 93 | 1016.7 |
| 20260507014421 | 54 | 0 | 0.0 | 0.0 | 0.00 | 1.20 | 1.19 | 92 | 1016.7 |
| 20260507014221 | 54 | 0 | 0.0 | 0.0 | 0.00 | 1.20 | 1.19 | 92 | 1016.6 |
| 20260507014021 | 54 | 0 | 0.0 | 0.0 | 0.00 | 1.20 | 1.19 | 92 | 1016.6 |
| 20260507013821 | 54 | 0 | 0.0 | 0.0 | 0.00 | 1.20 | 1.19 | 92 | 1016.6 |
| 20260507013642 | 54 | 0 | 0.0 | 0.0 | 0.00 | 1.20 | 1.19 | 92 | 1016.5 |
| 20260507013421 | 54 | 0 | 0.0 | 0.0 | 0.00 | 1.20 | 1.19 | 91 | 1016.5 |
| 20260507013242 | 54 | 270 | 0.0 | 0.9 | 0.01 | 1.20 | 1.19 | 91 | 1016.3 |
| 20260507013021 | 54 | 270 | 0.0 | 0.9 | 0.01 | 1.20 | 1.19 | 91 | 1016.1 |
| 20260507012842 | 54 | 270 | 0.0 | 0.9 | 0.01 | 1.20 | 1.19 | 91 | 1015.7 |
| 20260507012621 | 54 | 269 | 0.0 | 0.9 | 0.01 | 1.20 | 1.19 | 91 | 1015.6 |
| 20260507012421 | 54 | 270 | 0.0 | 0.9 | 0.01 | 1.20 | 1.19 | 91 | 1015.5 |
| 20260507012242 | 54 | 270 | 0.0 | 0.9 | 0.01 | 1.20 | 1.19 | 91 | 1015.4 |
| 20260507012021 | 54 | 270 | 0.0 | 0.9 | 0.01 | 1.20 | 1.19 | 91 | 1015.4 |
| 20260507011821 | 54 | 270 | 0.0 | 0.9 | 0.01 | 1.20 | 1.19 | 91 | 1015.6 |
| 20260507011621 | 54 | 272 | 0.0 | 0.9 | 0.01 | 1.20 | 1.19 | 92 | 1015.5 |
| 20260507011421 | 54 | 271 | 0.0 | 0.9 | 0.01 | 1.20 | 1.19 | 92 | 1015.6 |
| 20260507011221 | 54 | 271 | 0.0 | 0.9 | 0.01 | 1.20 | 1.19 | 92 | 1015.6 |
| 20260507011042 | 54 | 279 | 0.0 | 0.9 | 0.01 | 1.20 | 1.19 | 92 | 1015.3 |
| 20260507010821 | 54 | 279 | 0.0 | 0.9 | 0.01 | 1.20 | 1.19 | 93 | 1015.1 |
| 20260507010621 | 54 | 288 | 0.0 | 0.9 | 0.01 | 1.20 | 1.19 | 93 | 1015.1 |
| 20260507010421 | 54 | 359 | 0.0 | 0.9 | 0.01 | 1.20 | 1.19 | 93 | 1015.2 |
| 20260507010221 | 54 | 13 | 0.0 | 0.9 | 0.01 | 1.20 | 1.19 | 93 | 1015.1 |
| 20260507010021 | 54 | 13 | 0.0 | 0.9 | 0.01 | 1.20 | 1.19 | 93 | 1014.9 |
| 20260507005821 | 54 | 13 | 0.0 | 0.9 | 0.01 | 1.20 | 1.19 | 93 | 1014.9 |
| 20260507005621 | 54 | 0 | 0.0 | 0.0 | 0.01 | 1.20 | 1.19 | 93 | 1014.7 |
| 20260507005421 | 54 | 0 | 0.0 | 0.0 | 0.01 | 1.20 | 1.19 | 93 | 1014.7 |
| 20260507005221 | 54 | 0 | 0.0 | 0.0 | 0.01 | 1.20 | 1.19 | 93 | 1014.8 |
| 20260507005042 | 54 | 0 | 0.0 | 0.0 | 0.01 | 1.20 | 1.19 | 93 | 1014.8 |
| 20260507004842 | 54 | 0 | 0.0 | 0.0 | 0.01 | 1.20 | 1.19 | 93 | 1014.8 |
| 20260507004642 | 54 | 0 | 0.0 | 0.0 | 0.01 | 1.20 | 1.19 | 93 | 1014.8 |
| 20260507004421 | 54 | 0 | 0.0 | 0.0 | 0.01 | 1.20 | 1.19 | 93 | 1014.8 |
| 20260507004221 | 55 | 0 | 0.0 | 0.0 | 0.01 | 1.20 | 1.19 | 93 | 1014.6 |
| 20260507004021 | 55 | 0 | 0.0 | 0.0 | 0.01 | 1.20 | 1.19 | 93 | 1014.3 |
| 20260507003821 | 55 | 0 | 0.0 | 0.0 | 0.01 | 1.20 | 1.19 | 93 | 1014.3 |
| 20260507003623 | 55 | 0 | 0.0 | 0.0 | 0.01 | 1.20 | 1.19 | 93 | 1014.4 |
| 20260507003421 | 55 | 0 | 0.0 | 0.0 | 0.01 | 1.20 | 1.19 | 94 | 1014.4 |
| 20260507003221 | 55 | 19 | 0.0 | 0.9 | 0.00 | 1.19 | 1.18 | 94 | 1014.4 |
| 20260507003021 | 55 | 19 | 0.0 | 0.9 | 0.00 | 1.19 | 1.18 | 94 | 1014.6 |
| 20260507002821 | 55 | 19 | 0.0 | 0.9 | 0.00 | 1.19 | 1.18 | 94 | 1014.7 |
| 20260507002621 | 55 | 19 | 0.0 | 0.9 | 0.00 | 1.19 | 1.18 | 94 | 1014.6 |
| 20260507002421 | 55 | 19 | 0.0 | 0.9 | 0.00 | 1.19 | 1.18 | 94 | 1014.5 |
| 20260507002221 | 55 | 20 | 0.0 | 0.9 | 0.00 | 1.19 | 1.18 | 94 | 1014.2 |
| 20260507002021 | 55 | 20 | 0.0 | 0.9 | 0.00 | 1.19 | 1.18 | 93 | 1014.2 |
| 20260507001821 | 55 | 20 | 0.0 | 0.9 | 0.00 | 1.19 | 1.18 | 93 | 1014.4 |
| 20260507001622 | 55 | 20 | 0.0 | 0.9 | 0.00 | 1.19 | 1.18 | 93 | 1014.5 |
| 20260507001421 | 55 | 19 | 0.0 | 0.9 | 0.00 | 1.19 | 1.18 | 93 | 1014.5 |
| 20260507001221 | 55 | 17 | 0.0 | 0.9 | 0.00 | 1.19 | 1.18 | 93 | 1014.5 |
| 20260507001021 | 55 | 14 | 0.0 | 0.9 | 0.00 | 1.19 | 1.18 | 93 | 1014.4 |
| 20260507000821 | 55 | 14 | 0.0 | 0.9 | 0.00 | 1.19 | 1.18 | 93 | 1014.2 |
| 20260507000621 | 55 | 358 | 0.0 | 0.9 | 0.00 | 1.19 | 1.18 | 93 | 1014.2 |
| 20260507000421 | 55 | 327 | 0.0 | 0.9 | 0.00 | 1.19 | 1.18 | 93 | 1014.3 |
| 20260507000221 | 55 | 308 | 0.0 | 0.9 | 0.00 | 1.19 | 1.18 | 93 | 1014.3 |
| 20260507000022 | 55 | 276 | 0.0 | 0.9 | 0.01 | 1.19 | 1.18 | 93 | 1014.2 |
| 20260506235821 | 55 | 276 | 0.0 | 0.9 | 0.01 | 1.19 | 1.18 | 93 | 1014.5 |
| 20260506235621 | 55 | 277 | 0.0 | 0.9 | 0.01 | 1.19 | 1.18 | 93 | 1014.4 |
| 20260506235421 | 55 | 280 | 0.0 | 0.9 | 0.01 | 1.19 | 1.18 | 93 | 1014.0 |
| 20260506235221 | 55 | 280 | 0.0 | 0.9 | 0.01 | 1.19 | 1.18 | 93 | 1013.9 |
| 20260506235021 | 55 | 280 | 0.0 | 0.9 | 0.01 | 1.19 | 1.18 | 93 | 1014.0 |
| 20260506234821 | 55 | 280 | 0.0 | 0.9 | 0.01 | 1.19 | 1.18 | 93 | 1014.5 |
| 20260506234621 | 55 | 0 | 0.0 | 0.0 | 0.01 | 1.19 | 1.18 | 93 | 1014.9 |
| 20260506234421 | 55 | 281 | 0.0 | 0.9 | 0.01 | 1.19 | 1.18 | 92 | 1015.2 |
| 20260506234242 | 55 | 281 | 0.0 | 0.9 | 0.01 | 1.19 | 1.18 | 92 | 1015.1 |
| 20260506234042 | 55 | 281 | 0.0 | 0.9 | 0.01 | 1.19 | 1.18 | 92 | 1014.9 |
| 20260506233822 | 55 | 281 | 0.0 | 0.9 | 0.01 | 1.19 | 1.18 | 92 | 1014.9 |
| 20260506233621 | 55 | 280 | 0.0 | 0.9 | 0.01 | 1.19 | 1.18 | 92 | 1015.1 |
| 20260506233442 | 55 | 280 | 0.0 | 0.9 | 0.01 | 1.19 | 1.18 | 92 | 1015.4 |
| 20260506233221 | 55 | 280 | 0.0 | 0.9 | 0.01 | 1.19 | 1.18 | 92 | 1015.6 |
| 20260506233021 | 55 | 280 | 0.0 | 0.9 | 0.01 | 1.19 | 1.18 | 92 | 1015.9 |
| 20260506232821 | 55 | 280 | 0.0 | 0.9 | 0.01 | 1.19 | 1.18 | 92 | 1016.0 |
| 20260506232621 | 55 | 280 | 0.0 | 0.9 | 0.01 | 1.19 | 1.18 | 92 | 1016.0 |
| 20260506232442 | 55 | 280 | 0.0 | 0.9 | 0.01 | 1.19 | 1.18 | 92 | 1016.1 |
| 20260506232242 | 56 | 280 | 0.0 | 0.9 | 0.01 | 1.19 | 1.18 | 92 | 1015.8 |
| 20260506232021 | 56 | 280 | 0.0 | 0.9 | 0.01 | 1.19 | 1.18 | 92 | 1015.4 |
| 20260506231821 | 56 | 280 | 0.0 | 0.9 | 0.01 | 1.19 | 1.18 | 92 | 1015.0 |
| 20260506231642 | 56 | 280 | 0.0 | 0.9 | 0.01 | 1.19 | 1.18 | 92 | 1014.8 |
| 20260506231421 | 56 | 280 | 0.0 | 0.9 | 0.01 | 1.19 | 1.18 | 91 | 1014.7 |
| 20260506231242 | 56 | 280 | 0.0 | 0.9 | 0.01 | 1.19 | 1.18 | 91 | 1014.6 |
| 20260506231021 | 56 | 0 | 0.0 | 0.0 | 0.01 | 1.19 | 1.18 | 91 | 1014.7 |
| 20260506230842 | 56 | 0 | 0.0 | 0.0 | 0.01 | 1.19 | 1.18 | 91 | 1014.9 |
| 20260506230621 | 56 | 281 | 0.0 | 0.9 | 0.01 | 1.19 | 1.18 | 91 | 1014.9 |
| 20260506230421 | 56 | 281 | 0.0 | 0.9 | 0.01 | 1.19 | 1.18 | 91 | 1015.0 |
| 20260506230221 | 56 | 284 | 0.0 | 1.7 | 0.01 | 1.19 | 1.18 | 91 | 1015.2 |
| 20260506230021 | 56 | 285 | 0.0 | 1.7 | 0.00 | 1.18 | 1.17 | 91 | 1015.2 |
| 20260506225843 | 56 | 285 | 0.0 | 1.7 | 0.00 | 1.18 | 1.17 | 91 | 1015.4 |
| 20260506225642 | 56 | 286 | 0.0 | 1.7 | 0.00 | 1.18 | 1.17 | 91 | 1015.2 |
| 20260506225421 | 56 | 286 | 0.0 | 1.7 | 0.00 | 1.18 | 1.17 | 91 | 1015.3 |
| 20260506225221 | 56 | 292 | 0.0 | 0.9 | 0.00 | 1.18 | 1.17 | 90 | 1015.2 |
| 20260506225021 | 56 | 291 | 0.0 | 0.9 | 0.00 | 1.18 | 1.17 | 90 | 1014.9 |
| 20260506224821 | 56 | 291 | 0.0 | 0.9 | 0.00 | 1.18 | 1.17 | 90 | 1015.0 |
| 20260506224622 | 56 | 291 | 0.0 | 0.9 | 0.00 | 1.18 | 1.17 | 90 | 1015.1 |
| 20260506224421 | 56 | 291 | 0.0 | 0.9 | 0.00 | 1.18 | 1.17 | 90 | 1015.1 |
| 20260506224221 | 56 | 291 | 0.0 | 0.9 | 0.00 | 1.18 | 1.17 | 90 | 1015.2 |
| 20260506224043 | 56 | 291 | 0.0 | 0.9 | 0.01 | 1.18 | 1.17 | 90 | 1015.5 |
| 20260506223821 | 56 | 291 | 0.0 | 0.9 | 0.01 | 1.18 | 1.17 | 89 | 1015.4 |
| 20260506223621 | 56 | 291 | 0.0 | 0.9 | 0.01 | 1.18 | 1.17 | 88 | 1015.0 |
| 20260506223442 | 56 | 291 | 0.0 | 0.9 | 0.01 | 1.18 | 1.17 | 88 | 1014.8 |
| 20260506223221 | 56 | 291 | 0.0 | 0.9 | 0.01 | 1.18 | 1.17 | 88 | 1015.2 |
| 20260506223021 | 57 | 287 | 0.0 | 1.7 | 0.01 | 1.18 | 1.17 | 88 | 1015.1 |
| 20260506222821 | 57 | 287 | 0.0 | 1.7 | 0.01 | 1.18 | 1.17 | 88 | 1014.7 |
| 20260506222621 | 57 | 287 | 0.0 | 1.7 | 0.01 | 1.18 | 1.17 | 87 | 1014.6 |
| 20260506222421 | 57 | 286 | 0.0 | 1.7 | 0.01 | 1.18 | 1.17 | 87 | 1014.6 |
| 20260506222221 | 57 | 284 | 0.0 | 1.7 | 0.01 | 1.18 | 1.17 | 87 | 1014.7 |
| 20260506222021 | 57 | 282 | 0.0 | 0.9 | 0.01 | 1.18 | 1.17 | 87 | 1014.9 |
| 20260506221821 | 57 | 287 | 0.0 | 0.9 | 0.01 | 1.18 | 1.17 | 86 | 1014.7 |
| 20260506221621 | 57 | 286 | 0.0 | 0.9 | 0.01 | 1.18 | 1.17 | 86 | 1014.5 |
| 20260506221421 | 57 | 272 | 0.0 | 1.7 | 0.01 | 1.18 | 1.17 | 86 | 1014.4 |
| 20260506221221 | 57 | 250 | 0.0 | 1.7 | 0.01 | 1.18 | 1.17 | 87 | 1014.3 |
| 20260506221042 | 57 | 255 | 0.0 | 1.7 | 0.01 | 1.18 | 1.17 | 87 | 1014.0 |
| 20260506220821 | 57 | 280 | 0.0 | 1.7 | 0.01 | 1.18 | 1.17 | 87 | 1014.5 |
| 20260506220621 | 57 | 280 | 0.0 | 1.7 | 0.01 | 1.18 | 1.17 | 87 | 1015.0 |
| 20260506220442 | 57 | 286 | 0.0 | 1.7 | 0.01 | 1.18 | 1.17 | 87 | 1014.8 |
| 20260506220221 | 57 | 274 | 0.0 | 1.7 | 0.01 | 1.18 | 1.17 | 87 | 1015.3 |
| 20260506220022 | 57 | 273 | 0.0 | 1.7 | 0.01 | 1.18 | 1.17 | 87 | 1015.6 |
| 20260506215821 | 57 | 266 | 0.0 | 1.7 | 0.01 | 1.18 | 1.17 | 87 | 1014.9 |
| 20260506215621 | 58 | 266 | 0.0 | 1.7 | 0.01 | 1.18 | 1.17 | 87 | 1014.8 |
| 20260506215421 | 58 | 270 | 0.0 | 1.7 | 0.01 | 1.18 | 1.17 | 87 | 1014.7 |
| 20260506215221 | 58 | 286 | 0.0 | 1.7 | 0.01 | 1.18 | 1.17 | 87 | 1014.3 |
| 20260506215042 | 58 | 287 | 0.0 | 1.7 | 0.01 | 1.18 | 1.17 | 88 | 1014.4 |
| 20260506214821 | 58 | 317 | 0.0 | 0.9 | 0.01 | 1.18 | 1.17 | 89 | 1014.2 |
| 20260506214621 | 58 | 322 | 0.0 | 0.9 | 0.01 | 1.18 | 1.17 | 89 | 1014.4 |
| 20260506214421 | 58 | 322 | 0.0 | 0.9 | 0.01 | 1.18 | 1.17 | 89 | 1014.5 |
| 20260506214221 | 58 | 327 | 0.0 | 0.9 | 0.01 | 1.18 | 1.17 | 89 | 1014.7 |
| 20260506214042 | 58 | 338 | 0.0 | 0.9 | 0.00 | 1.17 | 1.16 | 89 | 1015.0 |
| 20260506213821 | 58 | 338 | 0.0 | 0.9 | 0.00 | 1.17 | 1.16 | 89 | 1015.0 |
| 20260506213621 | 58 | 0 | 0.0 | 0.0 | 0.00 | 1.17 | 1.16 | 88 | 1014.8 |
| 20260506213442 | 58 | 0 | 0.0 | 0.0 | 0.00 | 1.17 | 1.16 | 88 | 1014.7 |
| 20260506213221 | 58 | 0 | 0.0 | 0.0 | 0.00 | 1.17 | 1.16 | 88 | 1014.5 |
| 20260506213021 | 58 | 0 | 0.0 | 0.0 | 0.00 | 1.17 | 1.16 | 88 | 1014.3 |
| 20260506212821 | 58 | 0 | 0.0 | 0.0 | 0.00 | 1.17 | 1.16 | 87 | 1014.1 |
| 20260506212642 | 58 | 0 | 0.0 | 0.0 | 0.00 | 1.17 | 1.16 | 86 | 1013.9 |
| 20260506212421 | 58 | 0 | 0.0 | 0.0 | 0.00 | 1.17 | 1.16 | 87 | 1013.7 |
| 20260506212221 | 58 | 0 | 0.0 | 0.0 | 0.01 | 1.17 | 1.16 | 87 | 1013.7 |
| 20260506212021 | 59 | 0 | 0.0 | 0.0 | 0.01 | 1.17 | 1.16 | 86 | 1013.6 |
| 20260506211821 | 58 | 0 | 0.0 | 0.0 | 0.01 | 1.17 | 1.16 | 86 | 1013.4 |
| 20260506211621 | 59 | 0 | 0.0 | 0.0 | 0.01 | 1.17 | 1.16 | 86 | 1013.4 |
| 20260506211443 | 59 | 0 | 0.0 | 0.0 | 0.01 | 1.17 | 1.16 | 86 | 1013.5 |
| 20260506211221 | 59 | 0 | 0.0 | 0.0 | 0.01 | 1.17 | 1.16 | 86 | 1013.6 |
| 20260506211021 | 59 | 0 | 0.0 | 0.0 | 0.01 | 1.17 | 1.16 | 85 | 1013.7 |
| 20260506210842 | 59 | 0 | 0.0 | 0.0 | 0.01 | 1.17 | 1.16 | 85 | 1013.9 |
| 20260506210621 | 59 | 0 | 0.0 | 0.0 | 0.01 | 1.17 | 1.16 | 84 | 1013.9 |
| 20260506210442 | 59 | 0 | 0.0 | 0.0 | 0.01 | 1.17 | 1.16 | 84 | 1014.0 |
| 20260506210221 | 59 | 0 | 0.0 | 0.0 | 0.01 | 1.17 | 1.16 | 84 | 1014.0 |
| 20260506210021 | 59 | 0 | 0.0 | 0.0 | 0.01 | 1.17 | 1.16 | 83 | 1014.0 |
| 20260506205821 | 59 | 0 | 0.0 | 0.0 | 0.01 | 1.17 | 1.16 | 83 | 1014.0 |
| 20260506205643 | 59 | 0 | 0.0 | 0.0 | 0.01 | 1.17 | 1.16 | 83 | 1013.8 |
| 20260506205421 | 59 | 23 | 0.0 | 0.9 | 0.01 | 1.17 | 1.16 | 82 | 1013.9 |
| 20260506205221 | 59 | 23 | 0.0 | 0.9 | 0.01 | 1.17 | 1.16 | 82 | 1014.0 |
| 20260506205021 | 59 | 337 | 0.0 | 1.7 | 0.01 | 1.17 | 1.16 | 82 | 1014.1 |
| 20260506204821 | 59 | 339 | 0.0 | 1.7 | 0.01 | 1.17 | 1.16 | 81 | 1014.2 |
| 20260506204621 | 59 | 348 | 0.0 | 1.7 | 0.01 | 1.17 | 1.16 | 81 | 1014.5 |
| 20260506204421 | 59 | 322 | 0.0 | 1.7 | 0.01 | 1.17 | 1.16 | 81 | 1014.6 |
| 20260506204221 | 59 | 297 | 0.0 | 1.7 | 0.01 | 1.17 | 1.16 | 82 | 1014.7 |
| 20260506204044 | 59 | 286 | 0.0 | 1.7 | 0.01 | 1.17 | 1.16 | 82 | 1014.8 |
| 20260506203822 | 59 | 284 | 0.0 | 1.7 | 0.01 | 1.17 | 1.16 | 81 | 1014.7 |
| 20260506203621 | 59 | 278 | 0.0 | 1.7 | 0.01 | 1.17 | 1.16 | 81 | 1014.5 |
| 20260506203421 | 59 | 278 | 0.0 | 1.7 | 0.01 | 1.17 | 1.16 | 80 | 1014.7 |
| 20260506203221 | 59 | 275 | 0.0 | 0.9 | 0.01 | 1.17 | 1.16 | 80 | 1014.7 |
| 20260506203021 | 59 | 276 | 0.0 | 1.7 | 0.01 | 1.17 | 1.16 | 80 | 1014.6 |
| 20260506202821 | 59 | 277 | 0.0 | 1.7 | 0.01 | 1.17 | 1.16 | 80 | 1014.7 |
| 20260506202622 | 59 | 279 | 0.0 | 1.7 | 0.01 | 1.17 | 1.16 | 80 | 1014.8 |
| 20260506202421 | 59 | 279 | 0.0 | 1.7 | 0.01 | 1.17 | 1.16 | 80 | 1014.9 |
| 20260506202242 | 59 | 276 | 0.9 | 2.6 | 0.00 | 1.16 | 1.15 | 80 | 1015.0 |
| 20260506202021 | 60 | 274 | 0.9 | 2.6 | 0.00 | 1.16 | 1.15 | 80 | 1015.0 |
| 20260506201821 | 60 | 272 | 0.9 | 2.6 | 0.00 | 1.16 | 1.15 | 80 | 1015.0 |
| 20260506201621 | 60 | 274 | 0.9 | 2.6 | 0.00 | 1.16 | 1.15 | 79 | 1014.9 |
| 20260506201442 | 60 | 274 | 0.9 | 2.6 | 0.01 | 1.16 | 1.15 | 79 | 1014.6 |
| 20260506201242 | 60 | 274 | 0.9 | 2.6 | 0.01 | 1.16 | 1.15 | 79 | 1014.6 |
| 20260506201042 | 60 | 277 | 0.9 | 2.6 | 0.01 | 1.16 | 1.15 | 79 | 1014.7 |
| 20260506200821 | 60 | 278 | 0.9 | 2.6 | 0.01 | 1.16 | 1.15 | 78 | 1014.6 |
| 20260506200621 | 60 | 286 | 0.9 | 2.6 | 0.01 | 1.16 | 1.15 | 79 | 1014.5 |
| 20260506200421 | 60 | 317 | 0.0 | 2.6 | 0.01 | 1.16 | 1.15 | 78 | 1014.2 |
| 20260506200221 | 60 | 355 | 0.0 | 2.6 | 0.01 | 1.16 | 1.15 | 78 | 1014.2 |
| 20260506200021 | 60 | 26 | 0.0 | 2.6 | 0.01 | 1.16 | 1.15 | 78 | 1014.1 |
| 20260506195821 | 60 | 25 | 0.0 | 2.6 | 0.01 | 1.16 | 1.15 | 78 | 1014.0 |
| 20260506195621 | 61 | 21 | 0.0 | 2.6 | 0.01 | 1.16 | 1.15 | 78 | 1013.9 |
| 20260506195422 | 61 | 20 | 0.0 | 2.6 | 0.01 | 1.16 | 1.15 | 78 | 1013.9 |
| 20260506195221 | 61 | 7 | 0.0 | 1.7 | 0.01 | 1.16 | 1.15 | 78 | 1014.0 |
| 20260506195042 | 61 | 355 | 0.0 | 1.7 | 0.01 | 1.16 | 1.15 | 77 | 1014.1 |
| 20260506194821 | 61 | 8 | 0.0 | 1.7 | 0.01 | 1.16 | 1.15 | 77 | 1014.3 |
| 20260506194621 | 61 | 3 | 0.0 | 1.7 | 0.01 | 1.16 | 1.15 | 77 | 1014.6 |
| 20260506194421 | 61 | 356 | 0.0 | 1.7 | 0.01 | 1.16 | 1.15 | 78 | 1014.6 |
| 20260506194221 | 61 | 315 | 0.0 | 1.7 | 0.01 | 1.16 | 1.15 | 77 | 1014.7 |
| 20260506194021 | 61 | 357 | 0.0 | 1.7 | 0.01 | 1.16 | 1.15 | 76 | 1014.7 |
| 20260506193821 | 61 | 349 | 0.0 | 1.7 | 0.01 | 1.16 | 1.15 | 76 | 1014.5 |
| 20260506193621 | 61 | 319 | 0.0 | 1.7 | 0.01 | 1.16 | 1.15 | 75 | 1014.3 |
| 20260506193443 | 61 | 298 | 0.0 | 1.7 | 0.01 | 1.16 | 1.15 | 75 | 1014.3 |
| 20260506193221 | 61 | 294 | 0.0 | 1.7 | 0.01 | 1.16 | 1.15 | 75 | 1014.4 |
| 20260506193042 | 62 | 265 | 0.0 | 0.9 | 0.01 | 1.16 | 1.15 | 74 | 1014.5 |
| 20260506192821 | 62 | 265 | 0.9 | 0.9 | 0.01 | 1.16 | 1.15 | 74 | 1014.6 |
| 20260506192621 | 62 | 265 | 0.9 | 0.9 | 0.01 | 1.16 | 1.15 | 74 | 1014.6 |
| 20260506192421 | 62 | 277 | 0.9 | 3.5 | 0.01 | 1.16 | 1.15 | 74 | 1014.7 |
| 20260506192242 | 62 | 280 | 0.9 | 3.5 | 0.02 | 1.16 | 1.15 | 74 | 1014.7 |
| 20260506192021 | 62 | 280 | 0.0 | 3.5 | 0.02 | 1.16 | 1.15 | 75 | 1014.7 |
| 20260506191822 | 62 | 280 | 0.0 | 3.5 | 0.02 | 1.16 | 1.15 | 75 | 1014.7 |
| 20260506191621 | 62 | 279 | 0.0 | 3.5 | 0.02 | 1.16 | 1.15 | 74 | 1014.7 |
| 20260506191421 | 62 | 280 | 0.0 | 2.6 | 0.01 | 1.15 | 1.14 | 75 | 1014.6 |
| 20260506191221 | 62 | 279 | 0.0 | 1.7 | 0.01 | 1.15 | 1.14 | 75 | 1014.4 |
| 20260506191021 | 62 | 279 | 0.0 | 1.7 | 0.01 | 1.15 | 1.14 | 75 | 1014.4 |
| 20260506190822 | 62 | 279 | 0.0 | 0.9 | 0.01 | 1.15 | 1.14 | 75 | 1014.6 |
| 20260506190621 | 62 | 284 | 0.0 | 0.9 | 0.01 | 1.15 | 1.14 | 74 | 1014.7 |
| 20260506190421 | 62 | 319 | 0.0 | 0.9 | 0.01 | 1.15 | 1.14 | 75 | 1014.7 |
| 20260506190221 | 62 | 332 | 0.0 | 0.9 | 0.01 | 1.15 | 1.14 | 75 | 1014.7 |
| 20260506190021 | 62 | 334 | 0.0 | 0.9 | 0.01 | 1.15 | 1.14 | 74 | 1014.7 |
| 20260506185821 | 62 | 354 | 0.0 | 0.9 | 0.01 | 1.15 | 1.14 | 76 | 1014.7 |
| 20260506185621 | 62 | 17 | 0.0 | 0.9 | 0.01 | 1.15 | 1.14 | 75 | 1014.9 |
| 20260506185421 | 62 | 322 | 0.0 | 0.9 | 0.01 | 1.15 | 1.14 | 75 | 1015.0 |
| 20260506185221 | 62 | 277 | 0.0 | 2.6 | 0.01 | 1.15 | 1.14 | 74 | 1015.1 |
| 20260506185044 | 62 | 355 | 0.0 | 2.6 | 0.01 | 1.15 | 1.14 | 75 | 1014.9 |
| 20260506184821 | 62 | 10 | 0.0 | 2.6 | 0.01 | 1.15 | 1.14 | 75 | 1014.9 |
| 20260506184623 | 62 | 355 | 0.0 | 2.6 | 0.01 | 1.15 | 1.14 | 74 | 1014.9 |
| 20260506184422 | 62 | 351 | 0.0 | 2.6 | 0.01 | 1.15 | 1.14 | 74 | 1014.9 |
| 20260506184221 | 62 | 14 | 0.0 | 2.6 | 0.01 | 1.15 | 1.14 | 74 | 1014.9 |
| 20260506184021 | 62 | 357 | 0.0 | 1.7 | 0.01 | 1.15 | 1.14 | 74 | 1014.9 |
| 20260506183821 | 62 | 354 | 0.0 | 1.7 | 0.01 | 1.15 | 1.14 | 75 | 1014.9 |
| 20260506183642 | 62 | 1 | 0.0 | 1.7 | 0.01 | 1.15 | 1.14 | 76 | 1014.8 |
| 20260506183421 | 62 | 17 | 0.0 | 1.7 | 0.01 | 1.15 | 1.14 | 75 | 1014.8 |
| 20260506183223 | 62 | 22 | 0.0 | 1.7 | 0.02 | 1.15 | 1.14 | 75 | 1014.8 |
| 20260506183042 | 62 | 39 | 0.9 | 1.7 | 0.02 | 1.15 | 1.14 | 76 | 1014.7 |
| 20260506182821 | 62 | 35 | 0.9 | 1.7 | 0.02 | 1.15 | 1.14 | 76 | 1014.6 |
| 20260506182621 | 62 | 38 | 0.9 | 2.6 | 0.02 | 1.15 | 1.14 | 77 | 1014.5 |
| 20260506182421 | 62 | 40 | 0.9 | 3.5 | 0.02 | 1.15 | 1.14 | 77 | 1014.3 |
| 20260506182222 | 62 | 36 | 0.9 | 3.5 | 0.01 | 1.14 | 1.13 | 76 | 1014.3 |
| 20260506182021 | 62 | 21 | 0.9 | 3.5 | 0.01 | 1.14 | 1.13 | 76 | 1014.2 |
| 20260506181842 | 62 | 20 | 0.0 | 3.5 | 0.01 | 1.14 | 1.13 | 76 | 1014.2 |
| 20260506181621 | 62 | 19 | 0.0 | 3.5 | 0.01 | 1.14 | 1.13 | 77 | 1014.2 |
| 20260506181421 | 62 | 313 | 0.9 | 2.6 | 0.01 | 1.14 | 1.13 | 76 | 1014.2 |
| 20260506181242 | 62 | 305 | 0.9 | 2.6 | 0.01 | 1.14 | 1.13 | 77 | 1014.2 |
| 20260506181021 | 62 | 309 | 0.9 | 2.6 | 0.01 | 1.14 | 1.13 | 78 | 1014.3 |
| 20260506180821 | 61 | 336 | 0.9 | 3.5 | 0.01 | 1.14 | 1.13 | 77 | 1014.2 |
| 20260506180621 | 61 | 338 | 0.9 | 3.5 | 0.01 | 1.14 | 1.13 | 76 | 1014.3 |
| 20260506180421 | 61 | 9 | 0.9 | 3.5 | 0.01 | 1.14 | 1.13 | 76 | 1014.4 |
| 20260506180222 | 61 | 41 | 0.9 | 3.5 | 0.01 | 1.14 | 1.13 | 78 | 1014.4 |
| 20260506180021 | 61 | 48 | 0.9 | 3.5 | 0.01 | 1.14 | 1.13 | 78 | 1014.2 |
| 20260506175843 | 61 | 53 | 0.9 | 2.6 | 0.01 | 1.14 | 1.13 | 80 | 1014.2 |
| 20260506175621 | 61 | 60 | 0.9 | 2.6 | 0.01 | 1.14 | 1.13 | 80 | 1014.3 |
| 20260506175421 | 61 | 47 | 0.9 | 2.6 | 0.01 | 1.14 | 1.13 | 80 | 1014.3 |
| 20260506175221 | 61 | 48 | 1.7 | 2.6 | 0.01 | 1.14 | 1.13 | 80 | 1014.2 |
| 20260506175042 | 60 | 36 | 1.7 | 3.5 | 0.01 | 1.14 | 1.13 | 81 | 1014.2 |
| 20260506174842 | 60 | 24 | 1.7 | 3.5 | 0.01 | 1.14 | 1.13 | 82 | 1014.1 |
| 20260506174621 | 60 | 5 | 1.7 | 3.5 | 0.01 | 1.14 | 1.13 | 81 | 1014.1 |
| 20260506174421 | 60 | 327 | 0.9 | 4.3 | 0.01 | 1.14 | 1.13 | 81 | 1014.0 |
| 20260506174221 | 60 | 322 | 0.9 | 4.3 | 0.01 | 1.14 | 1.13 | 82 | 1014.0 |
| 20260506174021 | 59 | 287 | 0.9 | 4.3 | 0.01 | 1.14 | 1.13 | 82 | 1014.1 |
| 20260506173843 | 59 | 313 | 0.9 | 4.3 | 0.01 | 1.14 | 1.13 | 83 | 1014.0 |
| 20260506173621 | 59 | 6 | 0.9 | 4.3 | 0.02 | 1.14 | 1.13 | 83 | 1014.1 |
| 20260506173421 | 59 | 354 | 0.9 | 3.5 | 0.02 | 1.14 | 1.13 | 86 | 1013.9 |
| 20260506173242 | 59 | 342 | 0.9 | 3.5 | 0.01 | 1.13 | 1.12 | 86 | 1013.9 |
| 20260506173022 | 59 | 349 | 0.9 | 3.5 | 0.01 | 1.13 | 1.12 | 87 | 1013.9 |
| 20260506172821 | 59 | 352 | 0.9 | 3.5 | 0.01 | 1.13 | 1.12 | 86 | 1014.0 |
| 20260506172621 | 59 | 351 | 0.9 | 3.5 | 0.01 | 1.13 | 1.12 | 85 | 1013.9 |
| 20260506172422 | 59 | 40 | 0.9 | 3.5 | 0.01 | 1.13 | 1.12 | 88 | 1014.0 |
| 20260506172221 | 59 | 34 | 0.9 | 3.5 | 0.01 | 1.13 | 1.12 | 87 | 1014.0 |
| 20260506172021 | 59 | 345 | 0.9 | 3.5 | 0.01 | 1.13 | 1.12 | 87 | 1014.0 |
| 20260506171821 | 59 | 303 | 0.9 | 5.2 | 0.01 | 1.13 | 1.12 | 86 | 1014.1 |
| 20260506171621 | 59 | 290 | 0.9 | 5.2 | 0.01 | 1.13 | 1.12 | 86 | 1014.2 |
| 20260506171421 | 59 | 282 | 0.9 | 5.2 | 0.01 | 1.13 | 1.12 | 86 | 1014.4 |
| 20260506171221 | 59 | 285 | 0.9 | 5.2 | 0.01 | 1.13 | 1.12 | 85 | 1014.5 |
| 20260506171021 | 59 | 303 | 0.9 | 5.2 | 0.01 | 1.13 | 1.12 | 86 | 1014.4 |
| 20260506170821 | 59 | 322 | 0.9 | 5.2 | 0.01 | 1.13 | 1.12 | 87 | 1014.4 |
| 20260506170643 | 59 | 302 | 0.9 | 3.5 | 0.01 | 1.13 | 1.12 | 88 | 1014.4 |
| 20260506170421 | 58 | 284 | 0.9 | 3.5 | 0.01 | 1.13 | 1.12 | 87 | 1014.4 |
| 20260506170222 | 58 | 284 | 0.9 | 3.5 | 0.01 | 1.13 | 1.12 | 87 | 1014.5 |
| 20260506170042 | 58 | 279 | 0.9 | 3.5 | 0.01 | 1.13 | 1.12 | 88 | 1014.5 |
| 20260506165821 | 58 | 279 | 0.9 | 3.5 | 0.01 | 1.13 | 1.12 | 85 | 1014.6 |
| 20260506165622 | 58 | 278 | 0.9 | 3.5 | 0.01 | 1.13 | 1.12 | 85 | 1014.6 |
| 20260506165422 | 58 | 280 | 0.9 | 2.6 | 0.01 | 1.13 | 1.12 | 88 | 1014.6 |
| 20260506165221 | 58 | 284 | 0.9 | 3.5 | 0.01 | 1.13 | 1.12 | 88 | 1014.6 |
| 20260506165022 | 58 | 303 | 0.9 | 3.5 | 0.01 | 1.13 | 1.12 | 88 | 1014.6 |
| 20260506164842 | 58 | 357 | 0.9 | 3.5 | 0.02 | 1.13 | 1.12 | 88 | 1014.6 |
| 20260506164642 | 58 | 30 | 0.9 | 3.5 | 0.02 | 1.13 | 1.12 | 88 | 1014.6 |
| 20260506164421 | 57 | 50 | 0.9 | 3.5 | 0.02 | 1.13 | 1.12 | 90 | 1014.6 |
| 20260506164221 | 57 | 48 | 0.9 | 3.5 | 0.02 | 1.13 | 1.12 | 90 | 1014.5 |
| 20260506164044 | 57 | 41 | 0.9 | 3.5 | 0.02 | 1.13 | 1.12 | 90 | 1014.5 |
| 20260506163842 | 57 | 39 | 0.9 | 3.5 | 0.02 | 1.13 | 1.12 | 89 | 1014.6 |
| 20260506163624 | 57 | 36 | 0.9 | 3.5 | 0.01 | 1.12 | 1.11 | 91 | 1014.6 |
| 20260506163442 | 57 | 33 | 0.9 | 3.5 | 0.01 | 1.12 | 1.11 | 91 | 1014.7 |
| 20260506163221 | 57 | 38 | 0.9 | 3.5 | 0.01 | 1.12 | 1.11 | 90 | 1014.7 |
| 20260506163022 | 56 | 39 | 0.9 | 3.5 | 0.01 | 1.12 | 1.11 | 90 | 1014.7 |
| 20260506162821 | 56 | 38 | 0.9 | 3.5 | 0.01 | 1.12 | 1.11 | 91 | 1014.8 |
| 20260506162621 | 56 | 39 | 0.9 | 3.5 | 0.01 | 1.12 | 1.11 | 91 | 1014.9 |
| 20260506162423 | 56 | 49 | 0.9 | 4.3 | 0.01 | 1.12 | 1.11 | 91 | 1014.8 |
| 20260506162221 | 56 | 49 | 0.9 | 4.3 | 0.01 | 1.12 | 1.11 | 91 | 1014.8 |
| 20260506162022 | 56 | 49 | 0.9 | 4.3 | 0.01 | 1.12 | 1.11 | 91 | 1014.8 |
| 20260506161843 | 56 | 49 | 0.9 | 4.3 | 0.01 | 1.12 | 1.11 | 92 | 1014.8 |
| 20260506161622 | 56 | 16 | 0.9 | 4.3 | 0.01 | 1.12 | 1.11 | 92 | 1014.7 |
| 20260506161422 | 56 | 337 | 0.9 | 4.3 | 0.01 | 1.12 | 1.11 | 93 | 1014.7 |
| 20260506161221 | 56 | 312 | 0.9 | 4.3 | 0.01 | 1.12 | 1.11 | 92 | 1014.8 |
| 20260506161021 | 55 | 301 | 0.9 | 4.3 | 0.01 | 1.12 | 1.11 | 91 | 1014.8 |
| 20260506160821 | 55 | 280 | 0.9 | 3.5 | 0.02 | 1.12 | 1.11 | 90 | 1014.8 |
| 20260506160642 | 55 | 281 | 0.9 | 3.5 | 0.02 | 1.12 | 1.11 | 92 | 1014.8 |
| 20260506160421 | 55 | 277 | 0.9 | 3.5 | 0.02 | 1.12 | 1.11 | 91 | 1014.7 |
| 20260506160222 | 55 | 286 | 0.9 | 3.5 | 0.02 | 1.12 | 1.11 | 92 | 1014.6 |
| 20260506160021 | 55 | 304 | 0.9 | 3.5 | 0.02 | 1.12 | 1.11 | 92 | 1014.5 |
| 20260506155842 | 55 | 304 | 0.9 | 3.5 | 0.02 | 1.12 | 1.11 | 92 | 1014.6 |
| 20260506155622 | 55 | 314 | 0.0 | 2.6 | 0.02 | 1.12 | 1.11 | 92 | 1014.6 |
| 20260506155421 | 56 | 1 | 0.0 | 2.6 | 0.02 | 1.12 | 1.11 | 93 | 1014.6 |
| 20260506155222 | 56 | 336 | 0.0 | 2.6 | 0.02 | 1.12 | 1.11 | 94 | 1014.7 |
| 20260506155021 | 56 | 288 | 0.0 | 2.6 | 0.02 | 1.12 | 1.11 | 92 | 1014.5 |
| 20260506154842 | 56 | 312 | 0.0 | 2.6 | 0.01 | 1.11 | 1.10 | 94 | 1014.4 |
| 20260506154622 | 56 | 39 | 0.0 | 1.7 | 0.01 | 1.11 | 1.10 | 94 | 1014.3 |
| 20260506154421 | 56 | 102 | 0.0 | 2.6 | 0.01 | 1.11 | 1.10 | 94 | 1014.3 |
| 20260506154221 | 56 | 104 | 0.0 | 2.6 | 0.01 | 1.11 | 1.10 | 96 | 1014.3 |
| 20260506154021 | 56 | 66 | 0.0 | 2.6 | 0.01 | 1.11 | 1.10 | 97 | 1014.3 |
| 20260506153823 | 56 | 62 | 0.0 | 2.6 | 0.01 | 1.11 | 1.10 | 97 | 1014.3 |
| 20260506153621 | 55 | 61 | 0.0 | 2.6 | 0.01 | 1.11 | 1.10 | 97 | 1014.3 |
| 20260506153423 | 55 | 40 | 0.0 | 2.6 | 0.01 | 1.11 | 1.10 | 97 | 1014.2 |
| 20260506153221 | 55 | 24 | 0.9 | 2.6 | 0.02 | 1.11 | 1.10 | 97 | 1014.2 |
| 20260506153021 | 55 | 34 | 0.9 | 2.6 | 0.02 | 1.11 | 1.10 | 98 | 1014.1 |
| 20260506152821 | 54 | 35 | 0.9 | 2.6 | 0.02 | 1.11 | 1.10 | 98 | 1014.1 |
| 20260506152621 | 54 | 35 | 0.9 | 2.6 | 0.02 | 1.11 | 1.10 | 98 | 1014.2 |
| 20260506152421 | 54 | 29 | 0.9 | 2.6 | 0.02 | 1.11 | 1.10 | 98 | 1014.1 |
| 20260506152221 | 54 | 31 | 0.9 | 2.6 | 0.02 | 1.11 | 1.10 | 98 | 1014.0 |
| 20260506152021 | 53 | 24 | 0.0 | 2.6 | 0.02 | 1.11 | 1.10 | 99 | 1014.0 |
| 20260506151842 | 53 | 11 | 0.0 | 1.7 | 0.02 | 1.11 | 1.10 | 99 | 1014.0 |
| 20260506151622 | 53 | 10 | 0.9 | 1.7 | 0.02 | 1.11 | 1.10 | 98 | 1014.0 |
| 20260506151422 | 53 | 3 | 0.9 | 1.7 | 0.02 | 1.11 | 1.10 | 99 | 1013.9 |
| 20260506151221 | 52 | 333 | 0.9 | 1.7 | 0.02 | 1.11 | 1.10 | 99 | 1013.8 |
| 20260506151021 | 52 | 1 | 0.9 | 2.6 | 0.02 | 1.11 | 1.10 | 99 | 1013.7 |
| 20260506150823 | 52 | 16 | 0.9 | 2.6 | 0.01 | 1.10 | 1.09 | 98 | 1013.6 |
| 20260506150621 | 52 | 15 | 0.9 | 3.5 | 0.01 | 1.10 | 1.09 | 98 | 1013.6 |
| 20260506150442 | 52 | 28 | 0.9 | 3.5 | 0.01 | 1.10 | 1.09 | 98 | 1013.6 |
| 20260506150242 | 51 | 36 | 0.9 | 3.5 | 0.02 | 1.10 | 1.09 | 98 | 1013.6 |
| 20260506150022 | 51 | 41 | 0.9 | 3.5 | 0.02 | 1.10 | 1.09 | 98 | 1013.6 |
| 20260506145822 | 51 | 37 | 0.9 | 3.5 | 0.02 | 1.10 | 1.09 | 98 | 1013.6 |
| 20260506145621 | 51 | 38 | 0.9 | 4.3 | 0.02 | 1.10 | 1.09 | 98 | 1013.7 |
| 20260506145421 | 51 | 35 | 0.9 | 4.3 | 0.02 | 1.10 | 1.09 | 98 | 1013.7 |
| 20260506145221 | 51 | 32 | 0.9 | 4.3 | 0.02 | 1.10 | 1.09 | 98 | 1013.7 |
| 20260506145022 | 51 | 29 | 0.9 | 4.3 | 0.02 | 1.10 | 1.09 | 99 | 1013.9 |
| 20260506144842 | 51 | 25 | 0.9 | 4.3 | 0.02 | 1.10 | 1.09 | 99 | 1013.9 |
| 20260506144621 | 52 | 28 | 0.9 | 4.3 | 0.02 | 1.10 | 1.09 | 99 | 1013.7 |
| 20260506144421 | 51 | 32 | 0.9 | 4.3 | 0.02 | 1.10 | 1.09 | 99 | 1013.7 |
| 20260506144221 | 51 | 34 | 0.9 | 4.3 | 0.02 | 1.10 | 1.09 | 99 | 1013.7 |
| 20260506144021 | 51 | 35 | 0.9 | 4.3 | 0.02 | 1.10 | 1.09 | 99 | 1013.7 |
| 20260506143821 | 51 | 40 | 0.9 | 4.3 | 0.03 | 1.10 | 1.09 | 99 | 1013.7 |
| 20260506143622 | 52 | 38 | 0.9 | 1.7 | 0.03 | 1.10 | 1.09 | 99 | 1013.7 |
| 20260506143443 | 51 | 42 | 0.9 | 3.5 | 0.03 | 1.10 | 1.09 | 99 | 1013.8 |
| 20260506143243 | 51 | 38 | 0.9 | 3.5 | 0.02 | 1.09 | 1.08 | 99 | 1013.8 |
| 20260506143023 | 51 | 37 | 0.9 | 3.5 | 0.02 | 1.09 | 1.08 | 99 | 1013.9 |
| 20260506142843 | 51 | 34 | 0.9 | 3.5 | 0.02 | 1.09 | 1.08 | 99 | 1013.8 |
| 20260506142621 | 51 | 29 | 0.9 | 3.5 | 0.02 | 1.09 | 1.08 | 99 | 1013.8 |
| 20260506142422 | 51 | 24 | 0.9 | 3.5 | 0.02 | 1.09 | 1.08 | 99 | 1013.7 |
| 20260506142222 | 51 | 35 | 0.0 | 2.6 | 0.02 | 1.09 | 1.08 | 99 | 1013.8 |
| 20260506142021 | 51 | 27 | 0.0 | 2.6 | 0.03 | 1.09 | 1.08 | 99 | 1013.9 |
| 20260506141822 | 51 | 39 | 0.0 | 1.7 | 0.03 | 1.09 | 1.08 | 99 | 1013.9 |
| 20260506141621 | 51 | 46 | 0.0 | 1.7 | 0.03 | 1.09 | 1.08 | 99 | 1013.7 |
| 20260506141442 | 51 | 40 | 0.0 | 1.7 | 0.03 | 1.09 | 1.08 | 99 | 1013.6 |
| 20260506141221 | 51 | 359 | 0.0 | 1.7 | 0.03 | 1.09 | 1.08 | 99 | 1013.7 |
| 20260506141043 | 51 | 17 | 0.9 | 1.7 | 0.03 | 1.09 | 1.08 | 99 | 1013.8 |
| 20260506140821 | 51 | 17 | 0.9 | 1.7 | 0.04 | 1.09 | 1.08 | 99 | 1013.8 |
| 20260506140622 | 51 | 27 | 0.9 | 1.7 | 0.04 | 1.09 | 1.08 | 99 | 1013.7 |
| 20260506140422 | 51 | 28 | 0.9 | 1.7 | 0.04 | 1.09 | 1.08 | 99 | 1013.6 |
| 20260506140221 | 51 | 32 | 0.9 | 1.7 | 0.03 | 1.08 | 1.07 | 99 | 1013.5 |
| 20260506140021 | 51 | 39 | 0.9 | 2.6 | 0.03 | 1.08 | 1.07 | 99 | 1013.4 |
| 20260506135842 | 51 | 36 | 0.9 | 2.6 | 0.03 | 1.08 | 1.07 | 99 | 1013.4 |
| 20260506135622 | 50 | 29 | 0.9 | 2.6 | 0.03 | 1.08 | 1.07 | 99 | 1013.3 |
| 20260506135422 | 50 | 35 | 0.9 | 2.6 | 0.04 | 1.08 | 1.07 | 99 | 1013.4 |
| 20260506135243 | 50 | 38 | 0.9 | 2.6 | 0.04 | 1.08 | 1.07 | 99 | 1013.3 |
| 20260506135022 | 50 | 35 | 0.9 | 2.6 | 0.04 | 1.08 | 1.07 | 99 | 1013.3 |
| 20260506134821 | 50 | 39 | 0.9 | 2.6 | 0.04 | 1.08 | 1.07 | 99 | 1013.1 |
| 20260506134621 | 50 | 42 | 1.7 | 3.5 | 0.04 | 1.08 | 1.07 | 99 | 1013.1 |
| 20260506134421 | 50 | 47 | 1.7 | 3.5 | 0.04 | 1.08 | 1.07 | 99 | 1013.1 |
| 20260506134221 | 50 | 50 | 1.7 | 4.3 | 0.04 | 1.08 | 1.07 | 99 | 1013.1 |
| 20260506134022 | 50 | 52 | 1.7 | 6.1 | 0.05 | 1.08 | 1.07 | 99 | 1013.0 |
| 20260506133842 | 50 | 47 | 1.7 | 6.1 | 0.04 | 1.07 | 1.06 | 99 | 1012.9 |
| 20260506133621 | 50 | 54 | 1.7 | 6.1 | 0.04 | 1.07 | 1.06 | 98 | 1012.9 |
| 20260506133421 | 50 | 49 | 0.9 | 6.1 | 0.04 | 1.07 | 1.06 | 98 | 1012.9 |
| 20260506133221 | 50 | 43 | 0.9 | 6.1 | 0.04 | 1.07 | 1.06 | 99 | 1012.8 |
| 20260506133021 | 50 | 39 | 0.9 | 6.1 | 0.05 | 1.07 | 1.06 | 99 | 1012.8 |
| 20260506132843 | 50 | 41 | 0.9 | 6.1 | 0.05 | 1.07 | 1.06 | 99 | 1012.8 |
| 20260506132621 | 50 | 31 | 0.9 | 5.2 | 0.05 | 1.07 | 1.06 | 99 | 1012.8 |
| 20260506132442 | 50 | 29 | 0.9 | 5.2 | 0.05 | 1.07 | 1.06 | 99 | 1012.8 |
| 20260506132221 | 50 | 36 | 0.9 | 3.5 | 0.05 | 1.07 | 1.06 | 99 | 1012.9 |
| 20260506132021 | 50 | 38 | 0.9 | 3.5 | 0.05 | 1.06 | 1.05 | 99 | 1012.9 |
| 20260506131821 | 50 | 38 | 0.9 | 3.5 | 0.05 | 1.06 | 1.05 | 99 | 1012.9 |
| 20260506131643 | 50 | 37 | 0.9 | 3.5 | 0.05 | 1.06 | 1.05 | 99 | 1012.9 |
| 20260506131421 | 51 | 30 | 0.9 | 3.5 | 0.06 | 1.06 | 1.05 | 99 | 1012.7 |
| 20260506131222 | 51 | 28 | 0.9 | 3.5 | 0.06 | 1.06 | 1.05 | 99 | 1012.8 |
| 20260506131021 | 51 | 20 | 0.9 | 6.1 | 0.06 | 1.06 | 1.05 | 99 | 1012.8 |
| 20260506130843 | 51 | 18 | 0.9 | 6.1 | 0.06 | 1.05 | 1.04 | 99 | 1012.9 |
| 20260506130622 | 51 | 25 | 0.9 | 6.1 | 0.06 | 1.05 | 1.04 | 99 | 1012.9 |
| 20260506130422 | 51 | 29 | 0.9 | 6.1 | 0.07 | 1.05 | 1.04 | 99 | 1012.9 |
| 20260506130221 | 51 | 31 | 0.9 | 6.1 | 0.07 | 1.05 | 1.04 | 99 | 1012.9 |
| 20260506130021 | 51 | 39 | 0.9 | 3.5 | 0.08 | 1.05 | 1.04 | 99 | 1012.9 |
| 20260506125821 | 51 | 42 | 0.9 | 3.5 | 0.08 | 1.05 | 1.04 | 99 | 1012.9 |
| 20260506125621 | 51 | 29 | 0.9 | 3.5 | 0.08 | 1.05 | 1.04 | 99 | 1012.9 |
| 20260506125443 | 51 | 36 | 0.9 | 3.5 | 0.08 | 1.04 | 1.03 | 99 | 1012.9 |
| 20260506125242 | 51 | 31 | 0.9 | 3.5 | 0.08 | 1.04 | 1.03 | 99 | 1012.8 |
| 20260506125043 | 51 | 44 | 0.9 | 3.5 | 0.08 | 1.04 | 1.03 | 99 | 1012.9 |
| 20260506124843 | 51 | 52 | 0.9 | 3.5 | 0.09 | 1.04 | 1.03 | 99 | 1012.8 |
| 20260506124621 | 51 | 45 | 0.9 | 3.5 | 0.09 | 1.04 | 1.03 | 99 | 1012.9 |
| 20260506124422 | 51 | 28 | 0.9 | 3.5 | 0.10 | 1.04 | 1.03 | 99 | 1012.8 |
| 20260506124221 | 51 | 291 | 0.0 | 3.5 | 0.10 | 1.04 | 1.03 | 99 | 1012.8 |
| 20260506124022 | 51 | 277 | 0.0 | 3.5 | 0.09 | 1.03 | 1.02 | 99 | 1012.7 |
| 20260506123842 | 51 | 270 | 0.0 | 3.5 | 0.10 | 1.03 | 1.02 | 99 | 1012.8 |
| 20260506123642 | 51 | 274 | 0.0 | 3.5 | 0.10 | 1.03 | 1.02 | 99 | 1012.8 |
| 20260506123443 | 51 | 275 | 0.0 | 3.5 | 0.11 | 1.03 | 1.02 | 99 | 1012.7 |
| 20260506123243 | 51 | 277 | 0.0 | 0.9 | 0.11 | 1.03 | 1.02 | 99 | 1012.6 |
| 20260506123021 | 51 | 338 | 0.0 | 2.6 | 0.11 | 1.02 | 1.01 | 99 | 1012.6 |
| 20260506122821 | 51 | 338 | 0.0 | 2.6 | 0.11 | 1.02 | 1.01 | 99 | 1012.5 |
| 20260506122643 | 51 | 13 | 0.0 | 2.6 | 0.12 | 1.02 | 1.01 | 99 | 1012.5 |
| 20260506122421 | 51 | 36 | 0.0 | 2.6 | 0.12 | 1.02 | 1.01 | 99 | 1012.5 |
| 20260506122243 | 51 | 32 | 0.0 | 2.6 | 0.12 | 1.02 | 1.01 | 99 | 1012.3 |
| 20260506122021 | 51 | 24 | 0.0 | 1.7 | 0.12 | 1.01 | 1.00 | 99 | 1012.4 |
| 20260506121821 | 51 | 43 | 0.9 | 2.6 | 0.12 | 1.01 | 1.00 | 99 | 1012.3 |
| 20260506121621 | 51 | 45 | 0.9 | 3.5 | 0.13 | 1.01 | 1.00 | 99 | 1012.3 |
| 20260506121421 | 51 | 45 | 0.9 | 3.5 | 0.12 | 1.00 | 0.99 | 99 | 1012.3 |
| 20260506121221 | 51 | 38 | 0.9 | 3.5 | 0.13 | 1.00 | 0.99 | 99 | 1012.2 |
| 20260506121021 | 51 | 31 | 0.9 | 3.5 | 0.13 | 1.00 | 0.99 | 99 | 1012.2 |
| 20260506120821 | 51 | 22 | 0.9 | 3.5 | 0.13 | 0.99 | 0.98 | 99 | 1012.3 |
| 20260506120622 | 51 | 16 | 0.9 | 3.5 | 0.13 | 0.99 | 0.98 | 99 | 1012.2 |
| 20260506120421 | 51 | 13 | 0.9 | 3.5 | 0.12 | 0.98 | 0.97 | 99 | 1012.2 |
| 20260506120222 | 51 | 21 | 0.9 | 3.5 | 0.13 | 0.98 | 0.97 | 99 | 1012.3 |
| 20260506120022 | 51 | 37 | 0.9 | 3.5 | 0.12 | 0.97 | 0.96 | 99 | 1012.2 |
| 20260506115821 | 51 | 16 | 0.9 | 3.5 | 0.12 | 0.97 | 0.96 | 99 | 1012.1 |
| 20260506115622 | 51 | 327 | 0.9 | 2.6 | 0.12 | 0.97 | 0.96 | 99 | 1012.1 |
| 20260506115421 | 51 | 292 | 0.0 | 2.6 | 0.12 | 0.96 | 0.95 | 99 | 1012.2 |
| 20260506115221 | 51 | 291 | 0.0 | 2.6 | 0.12 | 0.96 | 0.95 | 99 | 1012.1 |
| 20260506115021 | 51 | 277 | 0.0 | 2.6 | 0.12 | 0.96 | 0.95 | 99 | 1012.0 |
| 20260506114822 | 51 | 281 | 0.0 | 2.6 | 0.11 | 0.95 | 0.94 | 99 | 1012.2 |
| 20260506114621 | 51 | 325 | 0.9 | 2.6 | 0.12 | 0.95 | 0.94 | 99 | 1012.0 |
| 20260506114422 | 51 | 29 | 0.9 | 4.3 | 0.11 | 0.94 | 0.93 | 99 | 1011.8 |
| 20260506114221 | 51 | 40 | 0.9 | 4.3 | 0.11 | 0.94 | 0.93 | 99 | 1011.8 |
| 20260506114022 | 51 | 42 | 0.9 | 4.3 | 0.11 | 0.94 | 0.93 | 99 | 1011.9 |
| 20260506113821 | 51 | 36 | 0.0 | 4.3 | 0.10 | 0.93 | 0.92 | 99 | 1011.7 |
| 20260506113642 | 51 | 37 | 0.0 | 4.3 | 0.10 | 0.93 | 0.92 | 99 | 1011.8 |
| 20260506113421 | 51 | 19 | 0.0 | 3.5 | 0.10 | 0.92 | 0.91 | 99 | 1011.7 |
| 20260506113221 | 51 | 297 | 0.0 | 3.5 | 0.10 | 0.92 | 0.91 | 99 | 1011.8 |
| 20260506113021 | 51 | 280 | 0.0 | 3.5 | 0.09 | 0.91 | 0.90 | 99 | 1011.8 |
| 20260506112843 | 51 | 278 | 0.0 | 3.5 | 0.09 | 0.91 | 0.90 | 99 | 1011.9 |
| 20260506112621 | 51 | 279 | 0.0 | 3.5 | 0.08 | 0.90 | 0.90 | 99 | 1011.9 |
| 20260506112421 | 51 | 278 | 0.0 | 3.5 | 0.08 | 0.90 | 0.89 | 99 | 1011.8 |
| 20260506112222 | 51 | 283 | 0.0 | 1.7 | 0.08 | 0.90 | 0.89 | 99 | 1011.9 |
| 20260506112023 | 51 | 291 | 0.0 | 0.9 | 0.07 | 0.89 | 0.88 | 99 | 1011.5 |
| 20260506111822 | 52 | 294 | 0.0 | 0.9 | 0.07 | 0.89 | 0.88 | 99 | 1011.2 |
| 20260506111622 | 52 | 291 | 0.0 | 0.9 | 0.07 | 0.88 | 0.87 | 99 | 1011.3 |
| 20260506111442 | 52 | 294 | 0.0 | 1.7 | 0.07 | 0.88 | 0.87 | 99 | 1011.4 |
| 20260506111222 | 52 | 10 | 0.0 | 1.7 | 0.06 | 0.87 | 0.86 | 99 | 1011.4 |
| 20260506111021 | 52 | 295 | 0.9 | 2.6 | 0.06 | 0.87 | 0.86 | 98 | 1011.4 |
| 20260506110821 | 52 | 284 | 0.9 | 2.6 | 0.06 | 0.86 | 0.85 | 98 | 1011.6 |
| 20260506110642 | 52 | 284 | 0.9 | 2.6 | 0.06 | 0.86 | 0.85 | 98 | 1011.4 |
| 20260506110421 | 52 | 284 | 0.9 | 3.5 | 0.06 | 0.86 | 0.85 | 98 | 1011.1 |
| 20260506110222 | 52 | 281 | 0.9 | 7.0 | 0.05 | 0.85 | 0.84 | 98 | 1011.3 |
| 20260506110021 | 52 | 281 | 0.9 | 7.0 | 0.06 | 0.85 | 0.84 | 98 | 1011.6 |
| 20260506105822 | 52 | 282 | 0.9 | 7.0 | 0.06 | 0.85 | 0.84 | 98 | 1011.4 |
| 20260506105621 | 52 | 290 | 0.9 | 7.0 | 0.06 | 0.85 | 0.84 | 98 | 1011.5 |
| 20260506105422 | 52 | 295 | 0.9 | 7.0 | 0.06 | 0.84 | 0.83 | 98 | 1011.9 |
| 20260506105221 | 52 | 304 | 0.0 | 4.3 | 0.06 | 0.84 | 0.83 | 98 | 1011.4 |
| 20260506105021 | 52 | 304 | 0.0 | 4.3 | 0.06 | 0.84 | 0.83 | 98 | 1011.2 |
| 20260506104822 | 52 | 311 | 0.0 | 4.3 | 0.07 | 0.84 | 0.83 | 98 | 1011.0 |
| 20260506104621 | 52 | 285 | 0.0 | 4.3 | 0.06 | 0.83 | 0.82 | 98 | 1011.1 |
| 20260506104421 | 52 | 281 | 0.0 | 4.3 | 0.07 | 0.83 | 0.82 | 98 | 1011.4 |
| 20260506104243 | 52 | 29 | 0.0 | 1.7 | 0.07 | 0.83 | 0.82 | 98 | 1010.9 |
| 20260506104021 | 52 | 34 | 0.0 | 1.7 | 0.08 | 0.83 | 0.82 | 98 | 1010.6 |
| 20260506103822 | 52 | 40 | 0.0 | 1.7 | 0.08 | 0.83 | 0.82 | 98 | 1010.6 |
| 20260506103621 | 52 | 38 | 0.0 | 1.7 | 0.09 | 0.83 | 0.82 | 98 | 1010.7 |
| 20260506103442 | 52 | 42 | 0.0 | 1.7 | 0.08 | 0.82 | 0.82 | 98 | 1010.5 |
| 20260506103221 | 52 | 43 | 0.0 | 1.7 | 0.09 | 0.82 | 0.81 | 98 | 1010.5 |
| 20260506103024 | 52 | 43 | 0.0 | 1.7 | 0.09 | 0.82 | 0.81 | 98 | 1010.5 |
| 20260506102821 | 52 | 43 | 0.0 | 2.6 | 0.10 | 0.82 | 0.81 | 98 | 1010.4 |
| 20260506102623 | 52 | 36 | 0.0 | 2.6 | 0.11 | 0.82 | 0.81 | 98 | 1010.6 |
| 20260506102421 | 52 | 36 | 0.0 | 2.6 | 0.12 | 0.82 | 0.81 | 98 | 1010.5 |
| 20260506102221 | 52 | 35 | 0.0 | 2.6 | 0.12 | 0.82 | 0.81 | 98 | 1010.5 |
| 20260506102021 | 52 | 37 | 0.0 | 2.6 | 0.13 | 0.82 | 0.81 | 98 | 1010.4 |
| 20260506101822 | 52 | 35 | 0.0 | 1.7 | 0.14 | 0.82 | 0.81 | 98 | 1010.4 |
| 20260506101622 | 52 | 40 | 0.0 | 1.7 | 0.14 | 0.81 | 0.80 | 98 | 1010.5 |
| 20260506101421 | 52 | 35 | 0.0 | 1.7 | 0.15 | 0.81 | 0.80 | 98 | 1010.5 |
| 20260506101221 | 52 | 34 | 0.0 | 1.7 | 0.16 | 0.81 | 0.80 | 98 | 1010.5 |
| 20260506101022 | 52 | 26 | 0.0 | 1.7 | 0.17 | 0.81 | 0.80 | 98 | 1010.4 |
| 20260506100844 | 52 | 291 | 0.0 | 0.9 | 0.18 | 0.80 | 0.80 | 98 | 1010.3 |
| 20260506100622 | 52 | 294 | 0.0 | 0.9 | 0.19 | 0.80 | 0.79 | 98 | 1010.2 |
| 20260506100422 | 52 | 294 | 0.0 | 0.9 | 0.19 | 0.80 | 0.79 | 98 | 1010.3 |
| 20260506100222 | 52 | 307 | 0.0 | 0.9 | 0.19 | 0.80 | 0.79 | 98 | 1010.4 |
| 20260506100022 | 52 | 335 | 0.0 | 0.9 | 0.18 | 0.79 | 0.78 | 98 | 1010.5 |
| 20260506095823 | 52 | 287 | 0.0 | 2.6 | 0.19 | 0.79 | 0.78 | 98 | 1010.3 |
| 20260506095643 | 52 | 286 | 0.0 | 2.6 | 0.21 | 0.79 | 0.78 | 98 | 1010.3 |
| 20260506095422 | 52 | 285 | 0.0 | 2.6 | 0.20 | 0.78 | 0.77 | 98 | 1010.4 |
| 20260506095222 | 52 | 290 | 0.0 | 2.6 | 0.21 | 0.78 | 0.77 | 98 | 1010.3 |
| 20260506095021 | 52 | 284 | 0.0 | 2.6 | 0.22 | 0.78 | 0.77 | 98 | 1010.3 |
| 20260506094822 | 52 | 286 | 0.0 | 1.7 | 0.24 | 0.77 | 0.76 | 98 | 1010.4 |
| 20260506094621 | 52 | 288 | 0.0 | 2.6 | 0.26 | 0.77 | 0.76 | 98 | 1010.3 |
| 20260506094422 | 52 | 286 | 0.0 | 2.6 | 0.28 | 0.76 | 0.75 | 98 | 1010.3 |
| 20260506094221 | 52 | 283 | 0.0 | 2.6 | 0.29 | 0.76 | 0.75 | 98 | 1010.3 |
| 20260506094023 | 52 | 285 | 0.0 | 2.6 | 0.28 | 0.75 | 0.74 | 98 | 1010.3 |
| 20260506093843 | 52 | 291 | 0.0 | 2.6 | 0.28 | 0.75 | 0.74 | 98 | 1010.3 |
| 20260506093622 | 52 | 290 | 0.0 | 1.7 | 0.28 | 0.74 | 0.73 | 98 | 1010.3 |
| 20260506093444 | 52 | 292 | 0.0 | 1.7 | 0.29 | 0.74 | 0.73 | 98 | 1010.3 |
| 20260506093222 | 52 | 304 | 0.0 | 1.7 | 0.29 | 0.73 | 0.72 | 98 | 1010.3 |
| 20260506093022 | 52 | 302 | 0.0 | 1.7 | 0.31 | 0.73 | 0.72 | 98 | 1010.3 |
| 20260506092821 | 52 | 281 | 0.0 | 0.9 | 0.32 | 0.72 | 0.71 | 98 | 1010.4 |
| 20260506092621 | 52 | 281 | 0.0 | 1.7 | 0.32 | 0.71 | 0.70 | 98 | 1010.3 |
| 20260506092422 | 52 | 284 | 0.0 | 1.7 | 0.31 | 0.70 | 0.70 | 97 | 1010.3 |
| 20260506092222 | 52 | 283 | 0.0 | 1.7 | 0.32 | 0.70 | 0.69 | 97 | 1010.2 |
| 20260506092022 | 52 | 276 | 0.0 | 2.6 | 0.32 | 0.69 | 0.68 | 97 | 1010.2 |
| 20260506091821 | 52 | 279 | 0.0 | 2.6 | 0.31 | 0.68 | 0.67 | 97 | 1010.1 |
| 20260506091622 | 52 | 292 | 0.0 | 2.6 | 0.30 | 0.67 | 0.66 | 97 | 1010.3 |
| 20260506091422 | 52 | 292 | 0.0 | 2.6 | 0.30 | 0.66 | 0.65 | 97 | 1010.3 |
| 20260506091222 | 52 | 290 | 0.0 | 2.6 | 0.29 | 0.65 | 0.64 | 98 | 1010.4 |
| 20260506091022 | 52 | 296 | 0.0 | 1.7 | 0.28 | 0.64 | 0.63 | 98 | 1010.6 |
| 20260506090844 | 52 | 293 | 0.0 | 1.7 | 0.26 | 0.62 | 0.61 | 97 | 1010.5 |
| 20260506090621 | 52 | 285 | 0.0 | 1.7 | 0.25 | 0.61 | 0.60 | 97 | 1010.5 |
| 20260506090443 | 52 | 284 | 0.0 | 1.7 | 0.25 | 0.61 | 0.60 | 97 | 1010.4 |
| 20260506090243 | 52 | 283 | 0.0 | 1.7 | 0.25 | 0.61 | 0.60 | 97 | 1010.2 |
| 20260506090022 | 53 | 277 | 0.0 | 1.7 | 0.25 | 0.61 | 0.60 | 97 | 1010.2 |
| 20260506085844 | 53 | 272 | 0.0 | 0.9 | 0.24 | 0.60 | 0.59 | 97 | 1010.0 |
| 20260506085622 | 53 | 278 | 0.0 | 1.7 | 0.22 | 0.58 | 0.58 | 97 | 1009.8 |
| 20260506085421 | 53 | 278 | 0.0 | 1.7 | 0.22 | 0.58 | 0.57 | 97 | 1009.8 |
| 20260506085222 | 53 | 277 | 0.0 | 1.7 | 0.22 | 0.57 | 0.56 | 97 | 1009.9 |
| 20260506085021 | 53 | 280 | 0.0 | 2.6 | 0.21 | 0.56 | 0.55 | 97 | 1010.1 |
| 20260506084822 | 53 | 283 | 0.0 | 2.6 | 0.19 | 0.53 | 0.52 | 97 | 1010.1 |
| 20260506084623 | 53 | 293 | 0.9 | 2.6 | 0.20 | 0.51 | 0.50 | 97 | 1010.1 |
| 20260506084422 | 53 | 296 | 0.9 | 2.6 | 0.19 | 0.48 | 0.47 | 97 | 1010.1 |
| 20260506084222 | 53 | 291 | 0.9 | 3.5 | 0.18 | 0.47 | 0.46 | 97 | 1009.9 |
| 20260506084022 | 53 | 292 | 0.9 | 3.5 | 0.19 | 0.47 | 0.46 | 97 | 1009.8 |
| 20260506083822 | 53 | 287 | 0.9 | 3.5 | 0.20 | 0.47 | 0.46 | 97 | 1009.6 |
| 20260506083643 | 53 | 284 | 0.9 | 3.5 | 0.19 | 0.46 | 0.45 | 97 | 1010.3 |
| 20260506083422 | 53 | 284 | 0.9 | 3.5 | 0.18 | 0.45 | 0.44 | 97 | 1010.2 |
| 20260506083222 | 53 | 293 | 0.9 | 3.5 | 0.17 | 0.44 | 0.43 | 97 | 1009.7 |
| 20260506083022 | 53 | 320 | 0.9 | 3.5 | 0.15 | 0.42 | 0.41 | 97 | 1010.0 |
| 20260506082843 | 53 | 9 | 0.0 | 4.3 | 0.13 | 0.40 | 0.40 | 97 | 1009.8 |
| 20260506082621 | 53 | 38 | 0.0 | 4.3 | 0.12 | 0.39 | 0.38 | 97 | 1009.7 |
| 20260506082423 | 53 | 47 | 0.0 | 4.3 | 0.13 | 0.39 | 0.38 | 97 | 1009.1 |
| 20260506082242 | 54 | 43 | 0.0 | 4.3 | 0.13 | 0.38 | 0.37 | 97 | 1009.0 |
| 20260506082022 | 54 | 313 | 0.0 | 4.3 | 0.13 | 0.37 | 0.36 | 97 | 1009.0 |
| 20260506081843 | 54 | 278 | 0.0 | 3.5 | 0.13 | 0.37 | 0.36 | 97 | 1009.0 |
| 20260506081622 | 54 | 278 | 0.0 | 3.5 | 0.13 | 0.37 | 0.36 | 97 | 1009.1 |
| 20260506081421 | 54 | 282 | 0.0 | 3.5 | 0.13 | 0.36 | 0.35 | 97 | 1009.3 |
| 20260506081222 | 54 | 281 | 0.9 | 3.5 | 0.13 | 0.36 | 0.35 | 97 | 1009.2 |
| 20260506081043 | 54 | 280 | 0.9 | 3.5 | 0.13 | 0.36 | 0.35 | 97 | 1009.2 |
| 20260506080843 | 54 | 283 | 0.9 | 2.6 | 0.13 | 0.36 | 0.35 | 97 | 1009.1 |
| 20260506080622 | 54 | 283 | 0.9 | 2.6 | 0.13 | 0.36 | 0.35 | 97 | 1009.1 |
| 20260506080422 | 54 | 281 | 0.9 | 2.6 | 0.13 | 0.36 | 0.35 | 97 | 1009.1 |
| 20260506080222 | 54 | 281 | 0.9 | 2.6 | 0.13 | 0.36 | 0.35 | 97 | 1009.2 |
| 20260506073422 | 55 | 297 | 0.0 | 2.6 | 0.05 | 0.27 | 0.26 | 96 | 1008.5 |
| 20260506073222 | 55 | 281 | 0.9 | 2.6 | 0.05 | 0.27 | 0.26 | 96 | 1008.4 |
| 20260506073021 | 55 | 282 | 0.9 | 3.5 | 0.05 | 0.27 | 0.26 | 96 | 1008.4 |
| 20260506072822 | 55 | 283 | 0.9 | 3.5 | 0.06 | 0.27 | 0.26 | 96 | 1008.4 |
| 20260506072623 | 55 | 281 | 0.9 | 3.5 | 0.06 | 0.27 | 0.26 | 96 | 1008.4 |
| 20260506072422 | 55 | 279 | 1.7 | 4.3 | 0.05 | 0.26 | 0.25 | 96 | 1008.4 |
| 20260506072222 | 55 | 281 | 1.7 | 4.3 | 0.04 | 0.25 | 0.24 | 96 | 1008.4 |
| 20260506072022 | 55 | 281 | 1.7 | 4.3 | 0.04 | 0.24 | 0.23 | 95 | 1008.4 |
| 20260506071822 | 55 | 281 | 1.7 | 4.3 | 0.04 | 0.24 | 0.23 | 95 | 1008.4 |
| 20260506071622 | 56 | 280 | 1.7 | 6.1 | 0.04 | 0.24 | 0.23 | 95 | 1008.4 |
| 20260506071422 | 56 | 282 | 1.7 | 6.1 | 0.03 | 0.23 | 0.22 | 95 | 1008.4 |
| 20260506071222 | 56 | 282 | 1.7 | 6.1 | 0.03 | 0.23 | 0.22 | 95 | 1008.3 |
| 20260506071022 | 56 | 280 | 1.7 | 6.1 | 0.03 | 0.23 | 0.22 | 95 | 1008.4 |
| 20260506070821 | 56 | 280 | 2.6 | 6.1 | 0.03 | 0.23 | 0.22 | 94 | 1008.4 |
| 20260506070643 | 57 | 281 | 2.6 | 5.2 | 0.03 | 0.23 | 0.22 | 94 | 1008.3 |
| 20260506070422 | 57 | 284 | 2.6 | 7.8 | 0.04 | 0.23 | 0.22 | 94 | 1008.2 |
| 20260506070243 | 57 | 286 | 2.6 | 7.8 | 0.04 | 0.23 | 0.22 | 94 | 1008.3 |
| 20260506062422 | 64 | 234 | 0.0 | 2.6 | 0.20 | 0.21 | 0.20 | 95 | 1007.3 |
| 20260506062243 | 64 | 237 | 0.0 | 2.6 | 0.20 | 0.21 | 0.20 | 95 | 1007.5 |
| 20260506062023 | 64 | 250 | 0.0 | 1.7 | 0.19 | 0.20 | 0.19 | 95 | 1007.4 |
| 20260506061822 | 64 | 247 | 0.9 | 1.7 | 0.19 | 0.20 | 0.19 | 95 | 1007.2 |
| 20260506061622 | 64 | 243 | 0.9 | 0.9 | 0.19 | 0.20 | 0.19 | 95 | 1007.3 |
| 20260506061423 | 64 | 260 | 0.9 | 2.6 | 0.19 | 0.20 | 0.19 | 95 | 1007.5 |
| 20260506061222 | 64 | 255 | 0.9 | 2.6 | 0.19 | 0.20 | 0.19 | 94 | 1007.5 |
| 20260506061043 | 64 | 254 | 0.9 | 2.6 | 0.19 | 0.20 | 0.19 | 94 | 1007.5 |
| 20260506060822 | 64 | 246 | 0.9 | 4.3 | 0.19 | 0.20 | 0.19 | 94 | 1007.4 |
| 20260506060621 | 65 | 246 | 0.9 | 4.3 | 0.19 | 0.20 | 0.19 | 94 | 1007.5 |
| 20260506060422 | 65 | 248 | 0.9 | 4.3 | 0.18 | 0.19 | 0.18 | 94 | 1007.6 |
| 20260506060222 | 65 | 254 | 1.7 | 4.3 | 0.18 | 0.19 | 0.18 | 93 | 1007.4 |
| 20260506051222 | 65 | 221 | 0.9 | 3.5 | 0.00 | 0.01 | 0.00 | 91 | 1006.5 |
| 20260506051022 | 65 | 219 | 0.9 | 3.5 | 0.00 | 0.01 | 0.00 | 91 | 1006.6 |
| 20260506050843 | 65 | 220 | 0.9 | 3.5 | 0.00 | 0.01 | 0.00 | 92 | 1006.6 |
| 20260506050622 | 65 | 225 | 0.9 | 3.5 | 0.00 | 0.01 | 0.00 | 92 | 1006.6 |
| 20260506050422 | 64 | 224 | 0.9 | 3.5 | 0.00 | 0.01 | 0.00 | 92 | 1006.6 |
| 20260506050222 | 64 | 218 | 0.9 | 2.6 | 0.00 | 0.01 | 0.00 | 92 | 1006.6 |
| 20260506045022 | 64 | 213 | 0.9 | 3.5 | 0.00 | 0.01 | 0.01 | 94 | 1006.8 |
| 20260506044822 | 64 | 212 | 0.9 | 2.6 | 0.00 | 0.01 | 0.01 | 94 | 1006.9 |
| 20260506044622 | 64 | 216 | 0.0 | 1.7 | 0.00 | 0.01 | 0.01 | 94 | 1006.9 |
| 20260506044422 | 63 | 215 | 0.0 | 1.7 | 0.00 | 0.01 | 0.01 | 94 | 1007.0 |
| 20260506044222 | 63 | 218 | 0.0 | 1.7 | 0.00 | 0.01 | 0.01 | 95 | 1007.0 |
| 20260506044023 | 63 | 229 | 0.0 | 1.7 | 0.00 | 0.01 | 0.01 | 95 | 1006.9 |
| 20260506043822 | 63 | 226 | 0.0 | 1.7 | 0.00 | 0.01 | 0.01 | 95 | 1006.9 |
| 20260506043622 | 63 | 224 | 0.0 | 0.9 | 0.00 | 0.01 | 0.01 | 95 | 1006.9 |
| 20260506043423 | 63 | 224 | 0.0 | 0.9 | 0.00 | 0.01 | 0.01 | 95 | 1007.0 |
| 20260506043222 | 63 | 215 | 0.0 | 1.7 | 0.01 | 0.01 | 0.01 | 95 | 1006.9 |
| 20260506043022 | 63 | 208 | 0.0 | 1.7 | 0.01 | 0.01 | 0.01 | 95 | 1006.9 |
| 20260506042822 | 63 | 204 | 0.0 | 1.7 | 0.01 | 0.01 | 0.01 | 95 | 1006.8 |
| 20260506042622 | 63 | 204 | 0.0 | 1.7 | 0.01 | 0.01 | 0.01 | 95 | 1006.9 |
| 20260506042443 | 63 | 204 | 0.0 | 1.7 | 0.01 | 0.01 | 0.01 | 95 | 1006.9 |
| 20260506042223 | 63 | 211 | 0.0 | 0.9 | 0.01 | 0.01 | 0.01 | 95 | 1007.0 |
| 20260506042022 | 63 | 211 | 0.0 | 0.9 | 0.01 | 0.01 | 0.01 | 95 | 1007.0 |
| 20260506041822 | 62 | 211 | 0.0 | 0.9 | 0.01 | 0.01 | 0.01 | 95 | 1007.0 |
| 20260506041622 | 62 | 211 | 0.0 | 0.9 | 0.01 | 0.01 | 0.01 | 95 | 1007.0 |
| 20260506041422 | 62 | 211 | 0.0 | 0.9 | 0.01 | 0.01 | 0.01 | 95 | 1007.0 |
| 20260506041222 | 62 | 190 | 0.0 | 0.9 | 0.01 | 0.01 | 0.01 | 95 | 1007.1 |
| 20260506041022 | 62 | 187 | 0.0 | 0.9 | 0.01 | 0.01 | 0.01 | 95 | 1007.1 |
| 20260506040822 | 62 | 179 | 0.0 | 0.9 | 0.01 | 0.01 | 0.01 | 95 | 1007.1 |
| 20260506040643 | 62 | 176 | 0.0 | 0.9 | 0.01 | 0.01 | 0.01 | 95 | 1007.1 |
| 20260506040422 | 62 | 166 | 0.0 | 0.9 | 0.01 | 0.01 | 0.01 | 95 | 1007.0 |
| 20260506040222 | 62 | 178 | 0.0 | 0.9 | 0.01 | 0.01 | 0.01 | 95 | 1007.1 |
| 20260506040022 | 62 | 178 | 0.0 | 0.9 | 0.01 | 0.01 | 0.01 | 95 | 1007.1 |
| 20260506035822 | 62 | 0 | 0.0 | 0.0 | 0.01 | 0.01 | 0.01 | 94 | 1007.2 |
| 20260506035622 | 62 | 0 | 0.0 | 0.0 | 0.01 | 0.01 | 0.01 | 94 | 1007.2 |
| 20260506035422 | 62 | 0 | 0.0 | 0.0 | 0.01 | 0.01 | 0.01 | 94 | 1007.1 |
| 20260506035222 | 62 | 0 | 0.0 | 0.0 | 0.01 | 0.01 | 0.01 | 94 | 1007.2 |
| 20260506035043 | 62 | 0 | 0.0 | 0.0 | 0.01 | 0.01 | 0.01 | 94 | 1007.3 |
| 20260506034822 | 62 | 0 | 0.0 | 0.0 | 0.01 | 0.01 | 0.01 | 94 | 1007.3 |
| 20260506034622 | 62 | 0 | 0.0 | 0.0 | 0.01 | 0.01 | 0.01 | 94 | 1007.5 |
| 20260506034422 | 62 | 0 | 0.0 | 0.0 | 0.01 | 0.01 | 0.01 | 94 | 1007.5 |
| 20260506034222 | 62 | 0 | 0.0 | 0.0 | 0.01 | 0.01 | 0.01 | 94 | 1007.4 |
| 20260506034022 | 62 | 0 | 0.0 | 0.0 | 0.01 | 0.01 | 0.01 | 94 | 1007.4 |
| 20260506033843 | 62 | 0 | 0.0 | 0.0 | 0.01 | 0.01 | 0.01 | 94 | 1007.6 |
| 20260506033622 | 62 | 0 | 0.0 | 0.0 | 0.01 | 0.01 | 0.01 | 94 | 1007.6 |